Location: *
(50.8512°N, 5.6907°E)
Time: 18:08:26
(UTC+00:00)

Meteor 2-3 Rocket - Pass Details

Date: 09 April 2020
Orbit: 842 x 885 km, 81.2° (Epoch: 24 May)

Event Time Altitude Azimuth Distance (km) Brightness Sun altitude
Rises 21:46:38 0° 345° (NNW) 3,484 8.1 -26.4°
Reaches altitude 10° 21:49:06 10° 344° (NNW) 2,535 7.1 -26.6°
Maximum altitude 21:54:50 70° 262° (W) 920 3.8 -27.0°
Enters shadow 21:55:25 65° 222° (SW) 950 3.8 -27.1°
